Location: Errabaliem
(16.8108°N, 80.4255°E)
Time: 13:54:32
(UTC+00:00)

Cosmos 1125 Rocket - Pass Details

Date: 05 August 2024
Orbit: 756 x 776 km, 74.0° (Epoch: 11 September)

Event Time Altitude Azimuth Distance (km) Brightness Sun altitude
Rises 23:01:21 0° 338° (NNW) 3,206 6.8 -18.4°
Reaches altitude 10° 23:03:47 10° 333° (NNW) 2,278 5.9 -17.9°
Maximum altitude 23:08:45 50° 259° (WSW) 955 3.6 -16.8°
Drops below altitude 10° 23:13:43 10° 184° (S) 2,273 5.7 -15.7°
Sets 23:16:08 0° 179° (S) 3,197 6.5 -15.1°
